Temp_Advection
nan nan nan nan nan nan nan nan nan nan nan nan nan nan nan nan nan nan nan nan nan nan nan nan nan nan nan nan nan nan nan nan nan nan nan nan nan nan nan nan nan nan nan nan nan nan nan nan nan nan nan nan nan nan
nan 0 0 0 0 0 0 0 0 0 0 -0 -0 -0 -0 0 0 -0 -0 -0 -0 -0 -0 -0 -0 -0 -0 -0 -0 -0 0 0 0 0 -0 -0 -0 -0 0 -0 -0 -0 -0 0 -0 -0 -0 -0 -0 -0 0 -0 -0 nan
nan 0 0 -0 0 1 0 0 0 -0 0 -0 -0 -0 -0 0 0 -0 -0 -0 -0 -0 -0 -0 0 0 0 0 -0 -0 -0 -0 0 0 0 0 0 -0 -0 0 -0 -0 -0 -0 -0 -0 -0 -1 -1 -1 -1 -1 -2 nan
nan -0 0 0 1 1 -0 0 0 0 -0 -0 -0 -0 -0 0 0 -0 -0 -0 -0 -0 -0 0 -0 -0 0 0 0 -0 -0 -0 -0 -0 -0 0 0 -0 -0 -0 -0 -0 -0 0 -0 -1 -1 -0 -1 -1 -2 -1 -1 nan
nan 0 0 0 1 0 0 1 0 -0 -0 -0 -0 -0 -0 0 -0 -0 -0 -0 0 -0 -0 0 -0 -0 0 0 -0 -0 -0 -0 -0 -0 -0 -0 0 -0 -0 -0 -0 -0 -0 -0 0 -0 -0 -1 -2 -1 -1 -2 -1 nan
nan 1 1 0 0 -0 1 1 -0 -0 -0 -0 -0 0 0 -0 0 -0 -0 -0 0 0 -0 -0 0 0 0 -0 -0 -0 -0 0 -0 -0 0 -0 -0 0 -0 -0 -0 -0 -0 -0 0 -0 -1 -1 -2 -2 -1 -1 -1 nan
nan 0 0 0 1 -0 1 0 -0 -0 -0 -0 -0 -0 -0 -0 0 -0 -0 -0 0 -0 -0 -0 -0 0 -0 -0 -0 -0 -0 -0 -0 -0 -0 -0 -0 -0 -0 -0 -0 -0 -0 -1 -1 -0 -1 -1 -0 -2 -3 -2 -1 nan
nan -1 0 1 0 1 1 -0 0 0 -0 -0 0 -0 0 0 0 -0 -1 -0 -0 -0 -1 -0 -1 0 -0 -0 -0 -0 -0 -0 -0 -0 -0 -0 -0 -0 -0 -1 -0 -0 -0 -0 -1 0 -0 -1 -1 -1 -2 -2 -1 nan
nan 1 1 1 0 1 0 -0 0 0 -0 -0 1 1 0 -0 -0 -0 -0 0 0 -0 -0 -0 -0 -0 -0 -0 0 -0 -0 -0 -0 0 -0 0 0 -0 -0 0 -0 -0 -0 -1 -1 -1 -0 -0 -1 -1 -1 -1 -0 nan
nan 1 1 -1 1 0 -0 -0 0 0 1 -0 0 0 0 -0 0 -0 -0 -0 -0 -0 -1 -0 0 -0 -0 -0 -0 0 -0 -0 -0 -0 -0 -0 -0 -1 0 0 0 0 0 -0 -1 -1 -0 -0 -0 -1 -1 -0 0 nan
nan 2 1 1 1 -0 -0 -0 -0 -1 -0 -0 -0 -0 0 0 0 -0 -0 -0 -0 -0 -0 0 -0 -0 -0 0 -0 0 0 -0 0 0 -0 -0 -0 0 0 0 0 0 0 0 -0 -0 -0 -0 -0 -0 -0 -0 0 nan
nan 1 1 2 0 -0 0 0 -0 -1 -1 -0 -0 -1 -0 0 -1 -2 -0 -0 -0 -0 -0 0 0 -0 -0 0 -0 0 -0 0 0 -0 -0 -0 0 0 1 1 1 1 0 -0 -0 -0 -0 -0 -0 -0 -0 -0 -0 nan
nan 1 1 1 0 0 0 0 0 0 0 0 -0 -0 0 -0 -1 0 -0 0 0 -0 -0 0 0 -0 -0 -0 -0 -0 -0 -0 0 -0 0 0 -0 0 0 0 0 1 1 -0 -0 -0 -0 -0 -0 -0 -0 -0 -0 nan
nan 1 1 1 1 0 0 0 0 1 0 0 -0 -1 -0 -0 0 -0 -0 -0 -0 -0 0 0 0 0 -0 0 -0 0 -0 0 0 0 0 -0 -0 0 0 0 -0 0 1 1 -0 -0 -0 -0 -0 -0 -0 -0 0 nan
nan 1 0 1 1 0 -1 -0 1 0 0 0 -0 -1 -0 0 0 0 0 -0 -0 0 0 -0 0 0 -0 -0 -0 -0 0 0 0 0 -0 -0 -0 0 0 0 0 -0 0 1 1 -0 -0 -0 -0 -0 -0 -0 -0 nan
nan 0 0 1 1 1 0 -1 -0 0 0 -0 -1 -1 -0 -0 -0 0 0 0 0 0 -0 -0 -0 -0 -0 -0 -0 0 0 1 0 -0 -1 -0 -0 -0 0 0 -0 -0 -0 0 1 1 -0 -0 -0 -0 -0 -0 -0 nan
nan -0 -0 0 1 0 0 0 0 -0 -0 -0 -0 -0 -0 -0 -1 -1 -0 -0 0 0 -0 0 0 -0 -0 0 0 0 0 -0 -0 0 -0 0 0 -0 -0 0 -0 -0 -0 -0 0 1 1 0 -0 -0 -0 -0 -0 nan
nan -1 0 0 -0 -1 0 0 -0 -0 -0 0 0 0 0 0 -0 -0 0 0 0 0 -0 0 -0 -0 0 0 -0 -1 -1 0 -0 -0 -1 -0 0 0 0 0 0 0 -0 -0 -0 0 1 0 0 -0 -0 -0 -0 nan
nan -1 -0 1 1 0 -0 -0 -0 -1 -0 0 1 1 0 0 0 0 0 0 0 0 0 -0 -0 -0 -1 -2 -2 -0 1 1 -0 -1 -1 -1 0 0 0 0 0 0 0 0 -0 -0 0 1 1 0 -0 -0 -0 nan
nan 0 1 1 1 -0 -0 -0 0 -0 -0 0 0 0 0 0 0 1 1 1 1 0 0 -0 -1 -2 -2 -0 1 0 0 1 1 -1 -2 -1 0 -0 0 0 0 0 0 0 0 0 0 0 0 0 -0 -1 -0 nan
nan 0 1 1 0 -0 -0 -0 -0 -0 -0 -0 0 0 0 0 0 0 1 1 0 0 -1 -3 -2 -0 1 0 0 0 0 0 0 0 -0 -1 -0 0 -0 0 -0 -0 0 0 -0 0 1 0 0 0 -0 0 -0 nan
nan -0 0 1 -0 -1 -1 -0 0 0 0 -0 0 0 0 0 0 0 1 0 -1 -2 -1 -1 -0 0 0 0 0 0 0 0 -0 -0 -0 -0 -0 -0 -0 0 -0 -0 -0 0 1 -0 0 1 0 -0 -0 1 -0 nan
nan 1 0 -0 -0 -1 -0 0 -0 -1 -0 0 0 -0 -0 -0 0 0 0 -1 -2 -1 0 1 0 0 -0 0 0 0 1 1 -0 -0 -0 0 -0 -0 -0 0 0 -0 -1 -0 1 0 0 0 1 1 -0 -0 0 nan
nan -0 -0 -0 -1 -0 0 -0 -0 -0 -0 -0 -0 -0 -0 0 0 0 -1 -3 -3 0 0 0 0 -0 -0 -0 -0 -0 -0 0 -0 -0 0 0 0 -0 -0 -0 -0 0 0 -0 -0 0 0 0 0 1 1 0 -0 nan
nan -1 -1 -1 0 -1 -0 0 -0 -0 -0 0 0 0 -0 0 -0 -0 -1 -3 -1 -0 0 0 -0 0 -0 -0 -0 0 -0 -0 -0 -0 -0 0 0 0 -0 -0 -1 -1 0 0 -0 0 0 0 0 0 0 0 0 nan
nan -0 -0 -0 0 -0 -0 0 0 0 -0 -0 -0 0 -0 0 0 -0 -1 -2 0 0 0 0 0 0 0 0 0 -0 -0 -0 -0 -1 -0 0 0 0 -0 -0 -1 -1 -0 0 -0 -0 0 1 0 -0 -0 0 0 nan
nan 0 0 0 -0 -1 -1 -0 -0 -0 0 -1 -0 0 0 -0 -1 -2 -2 -0 -0 0 0 0 0 0 0 0 -0 -1 -0 -1 -1 -1 -0 0 0 0 0 -0 -1 -1 -0 -0 -0 0 -0 -0 0 0 -0 -0 -0 nan
nan -0 -0 0 0 -1 -1 -0 -0 -1 -1 -1 -2 -0 -1 -1 -2 -2 -0 0 -0 0 0 0 1 0 -1 -1 -0 -0 0 -1 -1 -0 -1 -1 -1 -0 0 -0 -1 0 0 -0 -0 0 0 0 -0 -0 -0 -0 0 nan
nan -0 -1 -0 0 0 -1 -1 -2 -1 -1 -1 -1 -1 -2 -3 0 0 0 1 0 0 0 -0 -0 0 0 -0 -0 0 0 0 0 -1 -1 -1 -2 -2 -1 -1 -1 0 0 0 -0 0 0 -0 0 0 -0 -0 -0 nan
nan -0 -0 -0 -0 -1 -1 -1 -0 -0 0 0 -1 -1 -1 -2 -0 1 -0 1 1 0 -0 0 0 -0 0 -0 -1 -1 0 0 0 0 -0 -0 -1 -1 -1 0 0 -0 -1 -1 -0 0 0 -0 -0 0 1 0 -0 nan
nan 0 -0 0 -0 -0 -0 0 0 0 0 -1 0 0 -1 -4 -3 1 1 0 0 0 -0 -0 0 -0 -0 0 -0 -2 -1 1 0 -0 -1 -0 -0 -1 -1 -0 0 -0 -1 -0 -0 -0 -0 0 1 0 0 0 0 nan
nan 0 -0 0 -0 -0 -0 0 -0 -0 -0 -0 -0 0 0 0 -1 -1 -0 -0 0 0 -0 0 -1 0 0 0 0 0 -1 -0 -0 -1 -1 -1 -0 -0 -1 -1 -0 -0 -0 -0 -0 0 0 1 1 0 0 0 0 nan
nan nan nan nan nan nan nan nan nan nan nan nan nan nan nan nan nan nan nan nan nan nan nan nan nan nan nan nan nan nan nan nan nan nan nan nan nan nan nan nan nan nan nan nan nan nan nan nan nan nan nan nan nan nan
Wind_Speed
47 37 35 33 28 24 22 17 13 12 10 8 6 6 6 7 9 9 10 10 6 6 6 4 3 2 1 2 1 5 1 4 4 2 2 1 1 0 1 2 4 5 4 3 2 3 6 3 1 3 4 8 13 16
42 40 34 33 29 27 23 18 15 13 10 7 6 6 6 7 8 8 9 10 12 7 5 6 5 6 8 1 3 2 2 1 3 1 2 1 1 1 1 2 2 2 4 2 6 5 4 3 7 11 12 18 15 15
46 43 38 35 31 29 25 20 17 13 11 8 7 6 4 5 8 8 11 12 17 11 7 3 2 5 5 4 2 3 1 1 2 4 3 1 1 2 1 2 3 2 1 2 3 4 5 18 15 12 19 24 22 15
47 43 39 36 35 32 27 22 18 14 12 9 7 6 4 4 7 10 13 12 9 8 4 1 5 6 8 5 2 2 2 2 2 4 2 2 2 3 1 3 2 3 6 3 6 6 16 7 16 22 31 28 23 18
47 42 40 37 37 33 27 24 20 17 13 9 8 7 6 6 11 11 12 12 8 5 4 2 4 8 8 6 6 5 2 2 4 3 2 0 1 2 1 2 3 2 2 2 4 1 5 16 32 35 34 30 27 19
50 47 44 41 39 33 29 26 22 18 14 11 10 10 12 12 11 6 5 9 6 6 4 2 2 5 8 7 7 5 5 2 1 3 2 3 1 1 1 2 4 7 10 15 10 26 28 32 29 30 29 31 31 20
52 48 45 42 39 34 31 27 24 19 16 15 18 17 16 14 9 7 7 5 6 5 3 3 3 4 8 6 5 4 1 2 2 1 0 1 2 3 0 2 3 23 26 30 28 25 20 20 24 28 33 33 27 20
53 50 46 44 40 36 32 28 25 21 22 23 23 20 22 19 21 22 18 9 5 6 5 3 3 1 11 5 3 2 1 1 1 3 2 1 2 3 2 12 23 29 30 24 21 24 30 30 29 30 28 24 19 20
60 52 49 46 41 37 32 29 26 25 28 27 25 22 13 6 6 9 12 13 15 8 4 4 1 3 9 4 2 1 1 2 1 2 1 1 1 1 8 16 23 26 21 28 29 27 27 27 31 30 28 17 17 19
54 53 51 46 43 37 33 30 27 31 31 27 17 6 4 6 10 8 6 4 5 5 5 4 0 3 4 4 2 0 2 2 1 1 3 1 2 14 12 20 21 22 22 22 23 23 27 29 26 20 14 11 11 14
53 52 50 48 42 37 34 31 32 35 30 17 7 4 16 13 5 4 4 4 4 4 2 0 3 3 1 1 2 1 1 2 2 1 1 0 3 2 14 20 19 18 20 19 16 20 19 19 19 10 8 5 2 7
55 52 50 45 40 37 33 32 36 34 16 11 10 17 9 4 4 6 1 3 3 2 2 2 3 3 2 3 2 1 1 1 2 6 2 2 2 10 22 25 26 23 22 22 18 17 16 16 12 5 4 3 3 3
55 51 48 42 39 36 31 30 32 15 19 21 5 4 2 2 7 5 2 3 1 3 4 2 3 1 2 2 3 1 1 1 9 2 3 3 4 17 24 25 29 27 24 23 21 16 13 12 11 6 5 5 4 4
53 49 44 40 38 33 29 32 23 28 6 4 5 4 2 1 1 4 5 5 4 3 2 2 1 1 1 1 2 2 1 2 0 1 5 3 9 19 25 26 28 29 25 24 22 18 15 12 10 6 5 6 8 8
50 45 41 37 35 30 27 27 31 12 4 3 3 2 1 6 6 8 9 7 5 2 1 1 1 2 2 2 2 1 2 3 5 4 3 5 17 24 27 28 26 26 24 22 21 19 16 13 11 6 6 6 8 8
48 41 37 35 31 29 28 30 21 7 4 3 4 6 8 6 3 6 8 7 6 2 1 3 2 3 3 1 3 5 2 6 4 3 4 16 23 25 26 26 25 22 22 19 21 20 18 16 13 9 6 6 5 6
49 43 39 35 32 29 27 19 8 4 3 3 4 11 9 10 10 10 9 8 8 3 2 4 2 6 1 2 4 4 4 3 2 9 13 20 22 23 25 26 23 21 21 16 17 20 19 16 12 11 11 8 7 9
37 47 42 37 35 29 17 6 5 4 4 5 5 11 7 12 14 11 9 10 7 5 4 3 3 2 4 4 4 4 6 10 17 16 20 23 19 17 20 23 23 22 18 16 16 18 18 15 12 8 7 2 7 8
51 47 39 34 28 14 5 4 3 5 4 6 13 16 10 11 10 10 10 11 9 6 3 3 1 3 4 9 10 17 22 22 27 28 29 26 18 15 18 19 19 20 17 17 17 19 18 19 21 13 10 9 9 11
43 40 36 30 17 5 5 5 5 5 5 7 9 9 7 6 11 11 11 11 11 5 4 3 6 8 13 23 25 24 23 24 26 31 34 26 14 15 14 17 19 21 21 18 17 18 18 18 18 18 17 14 12 9
41 35 30 17 10 7 6 5 4 5 9 5 9 7 3 7 6 9 10 13 9 6 8 13 20 27 26 26 27 29 28 24 23 22 26 25 17 16 16 18 18 18 20 21 20 18 16 19 19 15 17 14 10 12
39 34 24 11 5 5 6 5 6 8 5 6 6 4 3 3 4 5 8 8 8 15 17 24 24 25 26 28 27 25 27 27 25 24 19 15 17 18 19 19 21 20 20 20 20 20 17 16 17 17 17 16 15 12
37 26 7 5 5 4 4 5 3 4 4 2 2 2 1 1 3 6 5 9 11 21 21 24 23 17 13 15 21 23 24 21 23 18 11 7 9 12 18 21 22 23 24 23 23 22 20 17 16 18 17 17 15 15
21 5 4 4 5 4 4 3 4 4 3 3 2 2 2 1 1 2 3 10 27 25 23 18 7 6 12 20 26 29 29 21 17 13 9 7 12 16 20 23 25 26 26 28 26 22 20 18 16 16 17 16 17 17
5 5 4 6 5 5 4 2 2 3 2 1 2 2 1 2 1 2 4 9 12 12 9 12 12 11 16 25 34 33 30 31 20 23 19 17 19 26 29 32 37 38 34 32 26 22 20 17 16 15 16 16 16 17
6 3 3 4 3 4 5 4 4 4 3 2 4 1 2 2 0 6 5 8 14 16 14 18 22 22 27 31 37 38 38 33 30 26 29 26 29 34 35 38 43 45 36 28 27 26 25 23 22 20 17 16 17 17
5 2 4 5 8 10 6 5 5 4 3 5 3 3 3 1 6 6 7 8 10 10 19 25 26 33 40 45 45 44 38 34 30 31 33 35 37 40 41 41 44 42 32 26 26 26 26 25 24 22 22 20 18 19
5 6 6 8 5 4 5 3 4 6 4 7 9 3 7 8 5 6 14 23 32 39 44 44 42 41 36 32 31 32 33 30 31 32 34 37 38 40 40 39 38 31 29 26 25 26 25 24 23 22 22 22 23 22
4 11 11 4 4 3 6 7 8 7 6 13 8 4 7 16 30 34 38 41 41 42 41 36 29 25 26 26 27 26 25 24 24 28 32 35 34 32 24 26 27 24 23 22 21 23 23 23 23 23 22 21 21 21
6 12 5 5 5 5 6 11 6 9 10 15 16 18 27 36 39 37 39 39 31 28 22 23 26 26 28 29 30 31 29 26 23 22 26 28 27 20 15 17 17 18 19 20 20 21 21 21 19 19 16 15 15 16
14 8 4 4 4 3 8 10 13 15 18 21 23 25 32 35 37 33 28 22 19 17 20 22 23 28 32 30 33 35 37 30 27 24 22 23 21 18 16 18 19 21 22 22 22 21 19 19 17 16 16 15 15 14
7 7 5 2 2 2 4 4 4 5 6 9 10 14 17 15 12 14 13 17 20 18 20 31 38 37 31 26 23 22 26 30 29 25 23 25 27 25 23 21 22 22 21 20 19 18 18 17 16 15 15 15 15 14
5 5 4 1 2 1 1 2 3 5 5 5 5 6 8 6 8 6 9 13 14 21 32 38 30 22 21 21 21 21 21 21 20 16 12 10 11 15 14 14 14 15 15 15 14 13 11 11 11 10 11 11 11 12
Wind_Direction
193 183 184 191 192 189 181 186 178 173 148 124 112 105 90 69 58 50 58 44 100 100 95 68 51 57 346 50 50 334 261 27 355 71 31 53 88 316 17 217 182 174 167 215 179 197 278 202 95 174 233 313 320 323
182 185 185 188 191 187 181 182 181 168 158 139 127 122 101 81 53 49 63 63 100 94 95 91 94 45 40 348 277 44 136 180 129 221 52 333 68 45 99 284 345 260 193 208 190 222 268 260 269 281 294 295 306 314
181 185 181 187 187 184 182 182 173 166 166 152 146 137 115 75 52 67 63 105 115 100 92 74 355 356 342 331 244 323 4 357 73 94 126 77 78 333 262 244 303 272 36 236 355 298 307 319 327 350 2 334 306 298
176 177 181 185 187 182 180 182 170 167 159 155 149 144 123 78 85 98 72 94 112 108 100 72 37 44 35 47 349 279 287 20 10 354 56 124 148 25 299 314 255 250 330 269 259 310 324 310 337 334 328 332 326 288
171 178 180 184 183 179 181 178 170 164 162 153 148 133 125 116 124 124 79 79 83 119 127 131 66 44 28 26 28 17 290 265 326 341 13 340 46 29 341 296 265 303 358 344 275 343 304 295 308 316 317 320 326 293
172 177 180 182 180 175 179 175 167 159 157 150 141 122 118 113 124 127 80 52 67 98 104 63 72 44 16 6 28 53 59 62 10 347 349 333 359 84 31 262 285 337 337 319 285 299 301 301 302 303 300 304 312 299
169 178 178 180 173 174 176 171 161 155 150 139 127 124 111 100 111 105 98 108 97 94 81 65 17 20 2 14 46 64 88 339 325 309 91 336 348 8 26 252 276 324 320 314 314 309 305 308 304 300 291 289 300 290
172 175 180 175 170 175 170 167 155 152 140 136 126 121 107 103 88 81 74 75 94 77 66 77 299 51 12 15 43 35 70 1 320 327 331 357 30 42 280 273 310 321 323 319 322 311 301 305 302 298 308 292 269 263
172 175 174 169 172 172 168 161 156 150 141 137 129 116 106 90 75 82 81 69 59 69 87 76 43 284 358 12 329 60 67 54 357 328 264 133 73 257 248 296 312 314 317 306 312 313 318 315 312 305 293 277 248 241
171 170 167 167 171 166 165 160 158 152 146 140 135 111 120 108 109 103 64 49 43 46 58 96 343 279 339 309 319 314 103 74 350 227 127 227 252 252 294 315 319 318 322 322 316 319 321 313 309 304 277 252 239 238
171 168 165 167 164 165 163 160 157 154 151 157 145 104 130 128 108 76 76 53 15 43 29 297 201 282 62 340 293 356 360 114 26 28 296 214 252 212 339 338 338 334 332 328 315 312 322 320 327 300 284 251 227 240
169 166 167 164 163 162 161 159 159 155 162 157 132 123 127 119 90 86 8 337 67 211 231 236 294 276 268 286 269 3 81 99 297 153 235 251 268 341 348 345 345 342 336 333 333 326 327 328 339 339 309 304 277 258
167 166 164 164 162 161 160 159 157 155 142 129 120 116 159 64 52 105 163 308 16 199 209 278 306 266 241 277 294 205 168 192 146 208 235 224 298 338 342 344 343 341 336 332 332 331 331 324 319 332 4 3 344 337
164 163 164 163 161 160 158 158 154 150 141 137 150 60 107 338 193 173 164 168 149 178 271 314 252 188 253 25 271 86 213 230 320 222 229 242 338 334 335 336 334 333 332 325 327 329 329 323 313 313 354 358 352 344
160 161 162 163 160 157 155 156 160 156 118 119 120 121 148 124 100 126 125 129 151 191 316 100 180 240 241 223 213 323 220 268 205 226 228 332 330 329 329 329 327 325 326 320 317 320 323 326 315 293 325 328 322 328
156 155 161 160 153 154 153 155 161 144 113 102 96 98 131 98 115 150 155 153 164 198 112 114 75 25 273 236 197 205 204 226 247 210 294 325 330 330 328 328 324 319 317 313 313 306 310 311 305 285 290 315 329 322
156 152 160 153 150 148 151 147 140 125 103 97 88 128 118 116 143 152 156 159 172 185 168 120 102 225 343 236 236 209 221 223 229 301 311 323 328 329 329 327 324 316 316 308 309 305 305 305 305 291 260 244 293 331
156 153 155 153 151 146 134 121 125 107 92 113 125 153 129 135 146 151 161 169 174 192 167 205 131 120 217 203 245 241 271 309 311 300 313 322 322 322 331 328 325 321 311 304 299 303 296 275 293 311 307 280 301 298
156 153 151 150 144 130 118 109 97 100 92 119 138 148 145 158 158 157 166 175 184 189 190 163 136 213 234 225 254 308 318 310 311 307 304 307 306 318 335 334 331 332 320 302 303 301 301 284 275 274 284 288 290 296
145 147 151 148 141 110 103 90 101 97 127 146 152 162 149 159 170 173 175 176 183 198 192 203 216 226 252 292 301 301 310 314 306 303 305 306 301 312 326 334 335 340 342 333 315 305 297 298 282 264 261 269 270 276
148 147 150 139 107 84 91 104 89 93 123 120 138 147 139 152 168 172 180 185 196 227 230 236 261 287 295 301 305 308 302 304 300 298 297 299 305 309 321 321 321 329 334 343 339 327 314 301 301 287 264 247 263 272
144 153 146 118 87 81 84 77 108 112 117 110 133 144 159 168 170 165 173 187 233 248 249 273 286 298 305 307 309 301 296 296 291 287 285 283 301 314 321 323 323 329 335 338 333 331 325 313 302 289 277 268 246 257
144 144 114 97 97 70 74 102 73 66 88 89 120 71 52 90 163 164 225 231 252 268 279 285 297 308 320 346 345 328 312 296 282 268 262 282 309 323 326 324 324 320 322 328 325 321 320 319 304 294 288 277 264 256
132 96 79 80 82 99 105 63 79 83 83 60 67 338 305 175 169 206 251 258 267 273 283 293 249 295 327 341 344 336 343 310 263 225 242 290 312 318 321 321 328 328 325 322 323 315 309 307 303 297 299 289 266 258
106 33 79 58 89 109 81 78 74 75 107 139 143 277 244 153 39 258 236 277 285 298 296 230 245 280 312 326 326 326 332 334 291 246 242 268 287 304 308 311 314 319 324 322 321 312 305 293 293 297 294 288 279 265
79 44 77 133 129 113 158 125 168 169 138 121 225 171 145 94 59 248 229 268 286 292 296 273 265 274 294 306 309 311 315 316 312 285 257 263 282 292 296 300 301 304 313 312 308 305 304 297 289 279 279 285 282 274
109 118 106 97 114 121 89 87 125 116 147 196 193 137 93 193 240 252 249 278 307 316 308 306 296 290 292 297 302 305 307 304 296 285 278 275 278 282 285 288 292 297 300 298 294 295 299 300 295 286 273 264 266 270
102 137 134 133 102 126 125 126 156 193 207 165 142 180 191 203 237 243 285 299 305 306 304 303 304 304 307 308 307 305 302 300 290 284 278 276 274 274 276 281 287 287 283 282 283 289 295 297 295 291 280 274 268 263
96 130 124 91 109 168 196 181 207 207 197 182 181 216 239 262 280 288 294 299 302 302 304 313 319 322 317 315 311 311 310 308 302 293 288 287 291 292 291 278 275 274 267 266 276 287 295 296 294 286 283 282 276 268
141 156 109 150 154 208 213 200 213 222 227 232 251 268 278 285 294 302 306 308 307 310 317 321 324 323 319 319 316 313 311 309 301 292 289 289 294 296 282 273 268 266 265 270 278 285 289 291 291 287 288 284 278 271
149 151 116 158 214 222 218 229 244 259 263 267 273 270 276 293 305 311 312 315 322 318 322 329 329 331 321 311 311 309 307 310 304 292 282 276 276 276 269 264 265 266 271 276 281 285 285 285 280 275 272 273 272 272
149 171 147 144 264 258 276 244 250 251 260 266 271 272 283 286 287 295 297 316 319 322 328 329 323 320 315 312 314 314 316 317 317 306 284 272 273 276 273 270 267 268 272 275 277 278 276 272 269 267 268 270 273 274
112 136 154 201 261 254 300 312 315 305 267 267 270 272 260 250 256 277 306 321 329 333 334 330 325 322 319 317 316 319 325 330 334 337 332 317 295 287 281 272 269 270 270 271 272 273 270 265 262 263 267 271 274 276
Height
1410 1420 1429 1440 1447 1453 1457 1462 1465 1466 1467 1469 1470 1470 1470 1471 1469 1469 1469 1468 1470 1474 1478 1480 1481 1479 1478 1481 1482 1479 1477 1475 1475 1473 1475 1477 1478 1479 1479 1477 1477 1480 1486 1485 1483 1479 1482 1455 1456 1459 1456 1450 1448 1445
1405 1416 1425 1434 1443 1449 1455 1459 1462 1464 1466 1468 1469 1469 1470 1470 1470 1469 1468 1469 1470 1473 1479 1481 1482 1481 1482 1480 1479 1475 1477 1475 1476 1478 1480 1478 1475 1481 1483 1479 1476 1479 1476 1478 1478 1471 1456 1455 1454 1453 1452 1449 1446 1444
1398 1410 1418 1431 1440 1446 1453 1457 1460 1462 1465 1466 1468 1468 1470 1470 1469 1469 1469 1470 1472 1474 1481 1482 1483 1484 1483 1482 1482 1484 1482 1483 1479 1477 1480 1482 1480 1482 1478 1478 1479 1472 1471 1474 1470 1459 1457 1454 1454 1454 1452 1450 1447 1444
1389 1403 1415 1426 1436 1443 1449 1454 1457 1460 1463 1465 1466 1467 1469 1470 1469 1471 1471 1471 1472 1475 1481 1485 1483 1483 1482 1482 1483 1484 1487 1488 1488 1486 1482 1482 1483 1484 1482 1482 1480 1474 1471 1468 1465 1459 1455 1452 1453 1453 1449 1447 1444 1443
1386 1398 1411 1423 1432 1440 1446 1452 1455 1458 1462 1464 1464 1466 1468 1469 1469 1471 1472 1473 1473 1477 1481 1484 1486 1485 1484 1484 1482 1485 1488 1489 1490 1489 1488 1486 1484 1484 1484 1484 1479 1474 1475 1475 1469 1466 1465 1459 1453 1451 1448 1445 1443 1440
1382 1395 1407 1418 1429 1437 1444 1448 1451 1455 1460 1462 1463 1466 1468 1469 1469 1470 1472 1477 1476 1477 1480 1486 1488 1487 1485 1484 1484 1485 1486 1486 1487 1489 1488 1488 1486 1486 1486 1485 1476 1475 1475 1475 1469 1463 1459 1453 1450 1448 1444 1441 1439 1436
1374 1393 1404 1414 1425 1434 1441 1445 1449 1454 1458 1460 1463 1467 1469 1470 1470 1471 1475 1479 1477 1478 1481 1486 1489 1488 1487 1486 1485 1485 1486 1488 1488 1487 1485 1486 1487 1486 1487 1486 1474 1473 1471 1466 1461 1457 1451 1449 1444 1442 1439 1435 1435 1433
1374 1387 1400 1413 1422 1432 1437 1441 1446 1452 1456 1459 1463 1468 1470 1472 1472 1472 1476 1478 1479 1479 1483 1490 1492 1488 1488 1487 1487 1485 1485 1487 1489 1491 1490 1488 1487 1488 1489 1478 1473 1470 1464 1457 1455 1454 1449 1444 1438 1434 1432 1430 1429 1429
1368 1381 1397 1409 1420 1429 1434 1439 1445 1450 1455 1459 1464 1468 1472 1474 1474 1477 1478 1479 1481 1485 1486 1492 1499 1500 1489 1487 1487 1488 1486 1489 1492 1492 1491 1493 1492 1492 1483 1477 1473 1468 1465 1457 1451 1447 1443 1437 1433 1430 1428 1425 1423 1425
1372 1381 1394 1407 1417 1424 1431 1437 1444 1449 1454 1459 1465 1468 1473 1474 1475 1478 1481 1483 1485 1488 1490 1494 1497 1496 1494 1489 1486 1486 1486 1488 1494 1489 1492 1490 1488 1481 1479 1476 1470 1465 1461 1455 1449 1442 1438 1433 1430 1426 1423 1421 1421 1421
1375 1385 1395 1404 1413 1422 1430 1436 1441 1447 1454 1460 1463 1468 1472 1474 1476 1479 1484 1487 1490 1494 1495 1495 1496 1494 1492 1491 1488 1487 1484 1487 1494 1493 1491 1489 1482 1477 1477 1473 1467 1463 1458 1454 1449 1444 1438 1432 1427 1422 1420 1419 1417 1418
1374 1387 1397 1405 1413 1421 1429 1435 1440 1446 1452 1458 1460 1468 1473 1474 1476 1481 1494 1492 1492 1496 1494 1494 1493 1493 1490 1488 1488 1486 1487 1488 1488 1490 1489 1481 1476 1474 1471 1469 1465 1461 1456 1451 1446 1441 1436 1431 1427 1424 1421 1419 1419 1419
1376 1387 1397 1406 1414 1422 1429 1435 1443 1448 1453 1457 1462 1466 1469 1475 1482 1489 1499 1500 1497 1491 1492 1491 1492 1490 1489 1489 1487 1484 1484 1483 1486 1486 1481 1477 1473 1471 1468 1464 1461 1458 1454 1450 1445 1440 1436 1432 1428 1425 1422 1422 1420 1418
1379 1390 1400 1408 1415 1424 1431 1437 1442 1449 1453 1455 1458 1471 1472 1481 1480 1481 1483 1484 1486 1488 1489 1490 1490 1490 1489 1489 1486 1485 1480 1480 1484 1489 1481 1471 1468 1467 1465 1461 1456 1453 1451 1447 1444 1440 1436 1432 1428 1425 1423 1421 1419 1418
1381 1394 1403 1412 1419 1426 1432 1438 1444 1448 1450 1454 1457 1469 1473 1472 1474 1477 1479 1482 1485 1487 1487 1488 1490 1490 1488 1487 1485 1482 1479 1486 1484 1480 1472 1468 1465 1462 1458 1455 1452 1448 1445 1443 1442 1438 1435 1430 1427 1425 1423 1421 1420 1418
1386 1397 1406 1415 1421 1428 1432 1441 1445 1448 1451 1454 1459 1466 1470 1471 1477 1478 1479 1481 1483 1486 1486 1487 1490 1494 1490 1486 1481 1479 1478 1484 1472 1466 1465 1465 1462 1458 1454 1450 1447 1444 1441 1438 1437 1435 1433 1429 1426 1424 1423 1421 1419 1418
1386 1394 1408 1415 1422 1429 1438 1441 1444 1448 1451 1455 1460 1461 1465 1467 1471 1475 1477 1480 1482 1484 1485 1486 1493 1489 1489 1487 1482 1476 1471 1466 1461 1461 1460 1459 1456 1454 1452 1447 1443 1439 1436 1433 1432 1430 1429 1427 1423 1420 1419 1418 1418 1416
1387 1396 1406 1414 1422 1431 1435 1439 1444 1447 1452 1456 1458 1462 1464 1467 1471 1474 1477 1479 1482 1482 1482 1484 1483 1490 1491 1491 1481 1468 1464 1462 1461 1458 1456 1455 1452 1449 1445 1442 1439 1435 1431 1429 1427 1425 1425 1424 1422 1419 1417 1415 1416 1415
1387 1396 1408 1418 1424 1429 1435 1442 1444 1447 1453 1456 1458 1461 1465 1467 1470 1472 1474 1477 1480 1482 1482 1481 1484 1487 1478 1471 1466 1463 1462 1459 1456 1452 1450 1449 1447 1444 1441 1438 1435 1431 1426 1424 1422 1421 1420 1419 1418 1417 1416 1415 1414 1413
1398 1406 1412 1418 1424 1429 1435 1442 1445 1447 1453 1457 1460 1463 1465 1467 1469 1471 1474 1476 1478 1480 1479 1477 1472 1467 1465 1463 1463 1460 1457 1455 1452 1447 1442 1441 1442 1440 1438 1435 1432 1427 1424 1421 1418 1417 1415 1415 1414 1413 1413 1412 1411 1410
1403 1409 1416 1421 1426 1431 1437 1442 1446 1449 1453 1457 1461 1464 1465 1467 1468 1469 1472 1474 1476 1472 1467 1462 1460 1461 1460 1458 1456 1454 1451 1449 1446 1444 1440 1437 1437 1435 1433 1431 1429 1424 1422 1419 1415 1413 1412 1411 1410 1409 1408 1407 1408 1408
1400 1411 1418 1423 1428 1434 1440 1445 1446 1449 1454 1458 1461 1462 1464 1465 1465 1468 1470 1472 1467 1458 1457 1456 1456 1455 1453 1451 1449 1447 1444 1441 1438 1435 1434 1433 1431 1430 1429 1428 1425 1421 1418 1416 1414 1411 1408 1407 1406 1405 1404 1404 1404 1404
1407 1416 1420 1423 1429 1437 1447 1446 1448 1451 1455 1459 1461 1462 1463 1464 1465 1468 1468 1462 1452 1449 1451 1451 1450 1450 1448 1445 1442 1439 1437 1433 1430 1429 1428 1428 1427 1427 1425 1424 1421 1418 1414 1412 1411 1408 1405 1403 1402 1400 1399 1398 1398 1399
1412 1416 1420 1425 1431 1443 1447 1449 1452 1455 1457 1459 1462 1465 1464 1464 1466 1466 1464 1450 1444 1445 1445 1445 1445 1443 1442 1439 1437 1434 1433 1428 1425 1423 1423 1422 1422 1422 1422 1419 1417 1415 1412 1408 1405 1402 1400 1399 1397 1396 1395 1394 1394 1394
1414 1425 1426 1432 1437 1442 1449 1453 1456 1457 1461 1464 1464 1464 1464 1464 1467 1467 1457 1441 1439 1439 1439 1440 1439 1437 1435 1432 1430 1428 1428 1424 1419 1417 1417 1417 1416 1415 1413 1412 1410 1409 1408 1404 1401 1397 1395 1394 1393 1391 1390 1390 1389 1390
1421 1427 1429 1432 1438 1440 1448 1454 1455 1458 1459 1464 1463 1463 1463 1465 1467 1458 1444 1436 1436 1436 1436 1435 1434 1432 1428 1427 1423 1419 1418 1417 1414 1411 1410 1411 1410 1409 1406 1404 1401 1399 1402 1399 1395 1392 1390 1389 1387 1386 1386 1386 1385 1385
1423 1427 1429 1432 1434 1438 1445 1448 1451 1453 1460 1460 1460 1463 1465 1469 1463 1441 1434 1433 1433 1433 1432 1431 1430 1426 1421 1416 1412 1409 1407 1406 1404 1402 1401 1401 1400 1398 1397 1396 1393 1393 1393 1391 1389 1386 1383 1382 1380 1380 1379 1379 1380 1380
1419 1423 1427 1433 1435 1438 1443 1446 1450 1452 1450 1450 1454 1461 1460 1454 1441 1431 1430 1430 1428 1426 1423 1420 1416 1413 1408 1403 1400 1396 1393 1393 1391 1389 1387 1385 1386 1386 1386 1385 1384 1384 1383 1381 1380 1378 1376 1375 1373 1373 1372 1372 1372 1373
1420 1423 1428 1435 1437 1439 1440 1442 1440 1440 1441 1443 1446 1445 1438 1431 1428 1426 1424 1424 1420 1416 1412 1407 1403 1401 1397 1394 1391 1389 1386 1384 1381 1378 1375 1372 1372 1373 1377 1374 1373 1373 1373 1372 1372 1370 1369 1367 1366 1365 1364 1364 1364 1364
1422 1425 1428 1433 1435 1436 1433 1435 1435 1436 1437 1438 1437 1434 1429 1423 1420 1419 1415 1412 1409 1406 1404 1401 1397 1393 1389 1386 1381 1379 1379 1377 1375 1372 1368 1366 1365 1366 1366 1366 1366 1366 1365 1365 1364 1363 1362 1361 1361 1359 1358 1358 1357 1357
1421 1424 1428 1430 1431 1432 1432 1433 1433 1433 1432 1430 1429 1427 1422 1417 1411 1410 1407 1405 1403 1401 1399 1395 1393 1390 1385 1381 1377 1372 1366 1366 1364 1363 1361 1358 1358 1358 1359 1359 1359 1358 1358 1358 1357 1356 1356 1355 1355 1354 1353 1353 1353 1353
1422 1425 1426 1428 1429 1430 1430 1431 1429 1427 1425 1424 1421 1418 1416 1416 1412 1407 1404 1402 1400 1397 1394 1392 1387 1382 1378 1374 1371 1367 1363 1357 1353 1350 1349 1348 1349 1349 1350 1351 1351 1351 1351 1351 1350 1350 1349 1349 1348 1348 1348 1348 1348 1348
1423 1424 1425 1426 1427 1426 1428 1428 1427 1425 1423 1419 1415 1414 1414 1414 1409 1404 1401 1400 1398 1395 1391 1387 1379 1375 1372 1369 1366 1362 1359 1355 1350 1346 1344 1343 1342 1342 1343 1343 1344 1344 1344 1344 1344 1344 1344 1344 1344 1344 1344 1344 1344 1344